Regional Weather Roundup
Issued by NWS Charleston, SC

Current Version | Previous Version | Graphics & Text | Print | Product List | Glossary On
Versions: 1 2 3 4 5 6 7 8 9 10 11 12 13 14 15 16 17 18 19 20 21 22 23 24 25 26 27 28 29 30 31 32 33 34 35 36 37 38 39 40 41 42 43 44 45 46 47 48 49 50
000 ASUS42 KCHS 252025 RWRCHS REGIONAL WEATHER ROUNDUP NATIONAL WEATHER SERVICE CHARLESTON SC 300 PM EST TUE NOV 25 2014 NOTE: "FAIR" INDICATES FEW OR NO CLOUDS BELOW 12,000 FEET WITH NO SIGNIFICANT WEATHER AND/OR OBSTRUCTIONS TO VISIBILITY. NOT ALL STATIONS ARE QUALITY CONTROLLED BY THE NATIONAL WEATHER SERVICE. USE DATA WITH CAUTION...ESPECIALLY DEWPOINT OBSERVATIONS. SCZ027-030-031-034>040-042>050-252100- ...SOUTHEAST SOUTH CAROLINA... CITY SKY/WX TMP DP RH WIND PRES REMARKS N CHARLESTON CLOUDY 66 62 87 CALM 30.00S WATERFRONT PRK N/A 63 N/A N/A NE3 N/A MOUNT PLEASANT CLOUDY 64 64 100 CALM 29.99S JOHNS ISLAND CLOUDY 64 64 100 CALM 29.99F PINOPOLIS N/A 64 61 88 W3 29.94R MONCKS CORNER FAIR 64 64 100 CALM 29.99F SUMMERVILLE CLOUDY 63 63 100 NW3 30.00F BEAUFORT MCAS CLOUDY 63 61 93 CALM 29.99F BEAUFORT ARPT CLOUDY 63 63 100 NE5 29.98F HILTON HEAD IS PTSUNNY 63 63 100 CALM 30.02S WALTERBORO LGT RAIN 64 N/A N/A CALM 30.00S ALLENDALE CLOUDY 59 57 94 CALM 30.01S ...SOUTHERN MIDLANDS AND PEE DEE... CITY SKY/WX TMP DP RH WIND PRES REMARKS GEORGETOWN NOT AVBL KINGSTREE NOT AVBL ORANGEBURG CLOUDY 62 57 83 NW3 30.01F BARNWELL N/A 61 57 88 CALM 30.01F AIKEN LGT RAIN 55 54 94 S5 30.05R MANNING NOT AVBL COLUMBIA LGT RAIN 60 54 80 CALM 30.00F SUMTER CLOUDY 62 59 90 S7 30.00S FLORENCE CLOUDY 63 61 93 W5 30.02R MYRTLE BEACH LGT RAIN 64 63 94 W6 30.01R N MYRTLE BEACH CLOUDY 65 62 90 CALM 30.00R $$ GAZ063-065-086>088-099>101-113>116-118-119-134>141-150-252100- ...SOUTHEAST GEORGIA... CITY SKY/WX TMP DP RH WIND PRES REMARKS SAVANNAH ARPT LGT RAIN 63 61 94 NW8 29.99R VSB 1 HUNTER AAF LGT RAIN 63 63 100 N1 29.96S FORT STEWART RAIN 57 57 100 N6 29.99R STATESBORO NOT AVBL SYLVANIA CLOUDY 57 55 93 CALM 30.02S CLAXTON CLOUDY 59 55 88 CALM 30.02R ...CSRA...CENTRAL AND FAR SOUTHEAST GEORGIA... CITY SKY/WX TMP DP RH WIND PRES REMARKS THOMSON CLOUDY 55 54 94 CALM 30.06S AUGUSTA-BUSH LGT RAIN 55 51 86 S5 30.02S AUGUSTA-DANIEL LGT RAIN 57 48 72 S3 30.01F SWAINSBORO LGT RAIN 55 55 100 CALM 30.03R VIDALIA LGT RAIN 54 50 87 N7 30.02S HAZLEHURST HVY RAIN 53 51 95 N6 30.02R ALMA CLOUDY 57 52 83 N9 30.00S WAYCROSS DRIZZLE 61 60 96 N9 29.99R JESUP LGT RAIN 61 59 94 N5 29.98S BAXLEY CLOUDY 55 52 88 N9 30.00R BRUNSWICK CLOUDY 63 61 94 CALM 29.98S SAINT SIMONS LGT RAIN 64 61 90 NE8 29.95F $$ SCZ027-028-034-036>038-045-046-048>050-GAZ119-141-252100- ...LAKE AND SUPPLEMENTAL COASTAL OBSERVATIONS... STATION/POSITION TIME TEMP WIND PRES WAVE SWELL AIR SEA DIR/SP/G HT/PER HT/PER/DIR (UTC) (F) (DEG/KT/KT) (MB) (FT/S) (FT/S/D) UPR LAKE MARION NOT AVBL WINYAH BAY 2000 64 CALM 1015.0S LAKE MURRAY 2000 60 260/ 3/ 3 1015.6S ACE BASIN NERRS 2000 63 CALM 1015.0F FORT PULASKI 2000 60 60/ 4/ 6 1015.2F SAPELO ISLAND 2000 63 50/ 5 1014.0F $$ ANZ835-935-AMZ111-154-330-350-352-354-370-450-454-472-252100- ...C-MAN AND BUOY OBSERVATIONS... STATION/POSITION TIME TEMP WIND PRES WAVE SWELL AIR SEA DIR/SP/G HT/PER HT/PER/DIR (UTC) (F) (DEG/KT/KT) (MB) (FT/S) (FT/S/D) FOLLY BEACH CMAN 2000 61 360/ 2/ 3 1015.8F BUOY 41004 2000 67 74 360/ 8/ 10 1015.1F 4/ 9 5/ 9 BUOY 41008 2000 64 64 30/ 12/ 14 1014.1F 2/ 9 2/100/ 9 CAPERS NEARSHORE 1900 59 160/ 2/ 4 N/A FRIPP NEARSHORE NOT AVBL STATION/POSITION TIME TEMP WIND PRES WAVE SWELL AIR SEA DIR/SP/G HT/PER HT/PER/DIR (UTC) (F) (DEG/KT/KT) (MB) (FT/S) (FT/S/D) 5E ST. MARYS GA 2000 62 N/A 3/11 2/130/11 FRYING PAN BUOY 2000 66 69 10/ 6/ 8 1016.8F 4/ 9 3/130/ 9 BUOY 41025 2000 67 20/ 2/ 6 1017.5R 4/ 8 5/140/ 8 CAPE LOOKOUT NC 2000 62 140/ 2/ 2 1017.5R BUOY 41002 1918 75 74 190/ 17/ 19 1017.8S 7/ 7 3/100/10 BUOY 41010 2000 79 78 170/ 17/ 21 1014.3F 7/ 9 3/120/ 9 ST AUGUSTINE FL 2000 66 30/ 10/ 11 1014.1F $$

USA.gov is the U.S. government's official web portal to all federal, state and local government web resources and services.